Theta_e
344 343 342 342 341 341 341 342 346 346 347 347 347 346 347 343 342 342 342 340 340 336
329 331 330 333 335 334 336 335 335 337 339 342 345 347 347 344 345 345 345 343 344 341
327 328 330 331 331 333 333 334 335 335 337 338 341 343 343 341 342 343 343 342 344 344
325 326 328 330 331 332 333 334 334 334 336 338 337 337 337 336 335 335 334 336 337 338
323 326 327 330 331 332 332 333 334 336 335 331 329 329 327 324 325 324 326 329 332 334
320 323 326 329 331 331 333 335 335 333 329 325 324 324 323 321 321 322 324 326 327 326
320 322 323 327 329 331 333 333 332 329 325 322 321 319 320 320 321 320 320 322 323 322
319 320 320 322 326 329 331 331 329 325 322 322 321 318 320 321 320 320 318 320 319 321
314 315 316 320 321 324 327 328 325 323 321 321 318 307 308 316 319 317 317 317 317 320
312 313 314 316 317 320 323 325 323 321 321 321 321 302 302 305 317 317 317 317 317 317
308 309 313 315 316 319 321 321 320 320 320 320 319 302 299 301 317 316 316 317 318 318
307 309 310 312 315 318 319 318 318 318 318 318 318 299 298 304 314 314 315 315 317 317
308 308 308 311 313 315 316 316 316 316 317 313 317 300 297 302 312 312 312 315 317 306
306 307 308 310 311 312 313 313 314 314 315 315 313 314 297 297 312 311 311 311 312 314
Wind_Speed
13 9 9 10 8 7 8 7 7 9 9 11 11 11 11 10 11 14 15 17 13 8
9 9 9 10 8 6 5 5 5 6 7 7 9 10 11 9 11 10 9 10 8 7
10 7 6 7 8 8 7 7 7 7 7 7 7 7 7 7 6 7 5 5 6 7
9 9 9 9 9 10 10 9 9 9 8 10 10 9 8 6 6 5 4 2 3 5
8 11 11 10 11 11 11 11 11 11 11 10 9 8 6 5 5 4 2 1 3 4
5 6 6 9 10 10 11 11 12 12 11 10 9 7 6 6 5 4 1 1 3 4
8 6 8 6 9 11 11 13 13 12 10 9 9 9 8 6 4 3 1 3 4 6
8 5 7 9 10 10 12 12 12 12 10 9 8 7 7 5 3 1 4 5 7 7
9 7 9 10 11 12 12 12 13 13 13 13 9 11 9 5 3 3 6 8 10 10
7 5 6 8 10 12 13 12 13 13 12 11 9 8 9 8 4 5 6 9 10 11
4 8 8 5 8 11 10 13 13 13 12 10 8 9 8 6 5 6 8 10 11 12
5 6 9 6 7 7 8 10 10 10 12 12 10 11 10 8 6 7 10 11 12 13
10 10 10 10 6 5 6 8 8 11 11 13 12 12 13 11 7 8 9 11 14 14
13 13 13 11 9 9 8 8 9 11 11 12 12 11 14 13 9 9 9 10 11 12
Wind_Direction
202 191 194 184 183 192 200 196 190 204 209 212 214 213 203 210 204 205 207 211 220 238
171 169 167 167 175 170 172 167 182 191 191 190 194 200 194 210 214 222 225 237 251 255
167 163 151 151 167 172 170 174 171 174 176 167 155 154 163 162 167 180 193 215 221 227
162 162 164 172 175 172 161 163 165 165 166 155 146 146 143 138 146 144 144 186 244 249
194 176 178 173 176 166 161 164 164 165 164 161 152 149 148 149 137 141 161 185 255 270
220 194 213 192 161 179 168 165 168 169 174 169 157 151 142 133 128 124 98 324 299 293
220 190 227 227 207 183 181 173 176 182 179 171 164 158 153 145 134 114 40 307 289 288
273 230 217 212 221 210 188 187 184 179 178 174 176 175 169 166 166 287 310 300 293 277
310 257 220 221 205 214 202 195 183 190 186 181 192 157 187 185 193 259 285 293 296 288
323 329 241 231 219 215 204 191 199 191 193 198 206 175 185 178 219 253 269 278 283 281
336 329 313 257 232 226 203 194 190 188 189 197 202 185 204 196 244 263 270 271 272 271
276 269 279 259 224 222 197 189 197 201 191 194 206 187 197 191 233 254 262 269 268 263
258 251 248 250 243 236 216 215 210 212 206 200 207 186 195 196 242 253 263 268 263 241
254 250 253 256 246 247 242 242 226 228 224 219 213 208 196 198 231 255 269 267 264 263